Terminal Aerodrome Forecast
Issued by NWS

Home | Current Version | Previous Version | Text Only | Print | Product List | Glossary On
Versions: 1 2 3 4 5 6 7 8 9 10 11 12 13 14 15 16 17 18 19 20 21 22 23 24 25 26 27 28 29 30 31 32
000
FTAK31 PAFA 250546
TAFAFA
TAF
PAFA 250546Z 2506/2612 VRB03KT P6SM SCT040 BKN100
     FM250800 00000KT P6SM -SHSN OVC050
     FM251800 13005KT P6SM VCSH SCT035 BKN100=

USA.gov is the U.S. government's official web portal to all federal, state and local government web resources and services.